[Iaude] MPEC S48: 2016 FC13

mpec at si.edu mpec at si.edu
Thu Sep 29 16:09:14 EDT 2016


M.P.E.C. 2016-S48                                Issued 2016 Sept. 26, 17:45 UT
 
     The Minor Planet Electronic Circulars contain information on unusual
         minor planets and routine data on comets.  They are published
    on behalf of Division F of the International Astronomical Union by the
          Minor Planet Center, Smithsonian Astrophysical Observatory,
                          Cambridge, MA 02138, U.S.A.

             Prepared using the Tamkin Foundation Computer Network

                              MPC at CFA.HARVARD.EDU
            URL http://www.minorplanetcenter.net/    ISSN 1523-6714


                                   2016 FC13
 
                           Revision to MPEC 2016-G01
 
Additional Observations:
     K16F13C |C2016 09 24.25219 00 05 49.42 -47 09 40.5          22.2 VuES048807
     K16F13C |C2016 09 24.26807 00 05 42.47 -47 08 44.0          22.2 VuES048807
     K16F13C |C2016 09 24.28397 00 05 35.49 -47 07 47.3          22.2 VuES048807
     K16F13C |C2016 09 25.14566 23 59 34.62 -46 16 04.9          22.2 VuES048807
     K16F13C |C2016 09 25.15550 23 59 30.46 -46 15 28.9          22.3 VuES048807
     K16F13C |C2016 09 25.16499 23 59 26.46 -46 14 54.4          22.2 VuES048807
 
Observer details:
807 Cerro Tololo.  Observers T. Linder, R. Holmes.  0.61-m f/6.5 astrograph
    + CCD.
 
First and last observations above in comparison with prediction:
Residuals in seconds of arc (or two decimals in degrees), reference and Delta-T
160924 807 0.03+ 0.04+    160925 807 0.03+ 0.04+    MPO374664   +0.034 day
 
Orbital elements:
2016 FC13                                           PHA, Earth MOID = 0.0301 AU
Epoch 2016 July 31.0 TT = JDT 2457600.5                 MPC
M  58.35449              (2000.0)            P               Q
n   0.69841122     Peri.  219.93713     -0.65858660     +0.74176181
a   1.2581389      Node    11.14465     -0.40498725     -0.20747310
e   0.2145074      Incl.   40.95815     -0.63423105     -0.63776510
P   1.41           H   22.0           G   0.15           U   3
Residuals in seconds of arc
160329 L51 (3.5-  1.3-)   160401 926  0.3+  0.4+    160402 474  0.2-  0.5-
160329 L51 (3.9-  2.3-)   160401 H21  0.1-  0.3+    160402 474  0.1-  0.4-
160329 L51  1.4-  1.0-    160401 H21  0.1+  0.4+    160402 474  0.1-  0.3-
160331 703  0.3-  0.2+    160401 H21  0.2+  0.4+    160402 474  0.0   0.4-
160331 703  0.6-  0.6-    160401 H21  0.3+  0.4+    160402 474  0.2+  0.4-
160331 703  0.6+  0.5-    160401 H21  0.1+  0.4+    160403 926  0.1+  0.1+
160331 703  0.1-  0.0     160401 H21  0.1+  0.3+    160403 926  0.3+  0.1+
160331 703  0.2-  0.1-    160401 H21  0.0   0.3+    160403 926  0.2+  0.4+
160331 703  0.1+  0.2+    160401 H21  0.0   0.1+    160403 926  0.0   0.6+
160331 703  0.0   0.2+    160401 H21  0.1+  0.3+    160403 926  0.3-  0.2+
160331 703  0.0   0.3+    160401 H21  0.3+  0.3+    160403 926  0.0   0.2+
160331 I52  0.3+  0.6+    160401 H45  0.0   0.5+    160403 926  0.2-  0.2+
160331 I52  0.1+  0.4+    160401 H45  0.4+  0.2-    160403 926  0.1+  0.1+
160331 I52  0.0   0.3+    160401 H45  0.2+  0.4-    160403 926  0.1-  0.0
160331 I52  0.2-  0.2+    160401 H45  0.1+  0.6-    160403 926  0.3-  0.1-
160331 I52  0.3+  0.7+    160401 H45  0.5-  0.9-    160403 926  0.2-  0.1-
160331 I52  0.1+  0.6+    160401 H45  0.2+  0.3-    160403 926  0.5-  0.1+
160331 I52  0.0   0.4+    160401 H45  0.4+  1.0+    160403 926  0.6-  0.4-
160331 I52  0.2+  0.7+    160401 H45  0.5-  0.6-    160403 926  0.4+  0.5+
160331 I52  0.1-  0.2+    160401 H45  0.3-  0.5-    160403 926  0.3+  0.3+
160331 I52  0.4+  0.6+    160401 H45  0.4-  0.2-    160403 926  0.2+  0.1+
160331 I52  0.0   0.5+    160401 H45  0.1+  0.0     160403 926  0.1+  0.1-
160331 I52  0.1-  0.2+    160401 H45  0.5+  0.4+    160403 926  0.3+  0.3+
160331 L04  0.2-  0.2+    160401 H45  0.0   1.0-    160403 474  0.2-  0.2-
160331 L04  0.8-  0.0     160401 H45  0.3-  0.7-    160403 474  0.2+  0.8+
160331 L04  0.0   0.1-    160401 H45  0.0   0.9-    160403 474  0.1-  0.5-
160331 L04  0.2-  0.4-    160401 H45  0.1+  0.8-    160403 474  0.0   0.1+
160331 L04  0.0   0.0     160401 300  0.1+  0.7-    160403 474  0.0   0.0
160331 L04  0.4-  0.3+    160401 300  1.0-  0.7-    160404 926  0.1+  0.1+
160331 L04  0.2-  0.1-    160401 300  0.1-  0.9-    160404 926  0.2+  0.4+
160331 D00  0.1+  0.3+    160401 300  1.1-  1.4-    160404 926  0.2+  0.1-
160331 D00  0.3+  0.6+    160401 G34  0.5-  0.4-    160404 926  0.2-  0.1+
160331 D00  0.6-  0.1-    160401 G34  0.4+  0.4+    160404 926  0.3+  0.4+
160331 D00  0.8+  0.4+    160401 G34 (1.4+  2.4+)   160404 926  0.1+  0.0
160331 L04  0.4-  0.1-    160401 G34  1.3+  0.7+    160410 474  1.0+  0.8-
160331 J95  0.0   0.0     160401 G34  0.3+  0.1+    160410 474  0.4-  0.1-
160331 J95  0.3+  0.1+    160402 926  0.1+  0.4+    160410 474  0.3-  0.2+
160331 J95  0.5+  0.0     160402 926  0.2+  0.6+    160410 474  0.4+  0.1+
160331 L04  0.1-  0.2-    160402 926  0.3+  0.4+    160410 807  0.2-  0.4+
160331 L04  0.3-  0.1-    160402 926  0.5+  0.6+    160410 807  0.4-  0.6+
160331 Z99  0.4-  0.4-    160402 926  0.0   0.0     160410 807  0.2-  0.2+
160331 Z99  0.6-  0.7-    160402 926  0.2-  0.1-    160924 807  0.1+  0.2+
160331 Z99  0.8-  0.7-    160402 474  0.1-  0.2-    160924 807  0.1+  0.0
160331 595  0.3-  0.0     160402 474  0.1-  0.5-    160924 807  0.2-  0.2-
160401 595  0.7-  0.3-    160402 474  0.0   0.5-    160925 807  0.2-  0.1+
160401 926  0.3+  0.4+    160402 474  0.5-  0.5-    160925 807  0.2-  0.2+
160401 926  0.1+  0.3+    160402 474  0.2-  0.4-    160925 807  0.1-  0.1+

Ephemeris:
2016 FC13                a,e,i = 1.26, 0.21, 41                  q = 0.9883
Date    TT    R. A. (2000) Decl.     Delta      r     Elong.  Phase     V
2016 08 27    03 43 27.9 -54 55 56   0.5411  1.2558   103.9    51.3    23.1
...
2016 09 11    01 57 14.9 -55 31 45   0.4673  1.3041   119.9    42.0    22.6
...
2016 09 19    00 46 55.9 -51 40 04   0.4473  1.3286   128.2    36.4    22.4
...
2016 09 25    00 00 34.9 -46 24 55   0.4465  1.3464   132.7    33.2    22.3
2016 09 26    23 53 48.3 -45 23 08   0.4478  1.3493   133.2    32.8    22.3
2016 09 27    23 47 19.5 -44 19 21   0.4494  1.3521   133.6    32.4    22.3
...
2016 10 03    23 14 36.7 -37 29 12   0.4675  1.3690   134.4    31.5    22.4
...
2016 10 11    22 45 30.0 -28 14 02   0.5131  1.3904   131.1    32.7    22.6
...
2016 10 26    22 20 33.0 -13 52 09   0.6486  1.4269   119.1    37.5    23.3

A. U. Tomatic                (C) Copyright 2016 MPC           M.P.E.C. 2016-S48




More information about the Iaude mailing list